• In Deutschland
  • Länderverzeichnis
  • Für 7 Tage
  • Wassertemperatur
  • Satellitenkarten
  • Wetterkarte
  • Widgets
  • user-avatar
    Anmelden

    Stündliche Wetter Buriti Alegre

    Heute, 15 Oktober, Montag

    Zeit Temperatur Niederschläge Wind Luftdruck Luftfeuchtigkeit
    00:00 +25°C° 0.2 mm 1 m/S 697 mmHg 78%
    01:00 +25°C° 0.1 mm 1 m/S 697 mmHg 79%
    02:00 +23°C° 0.1 mm 0 m/S 697 mmHg 79%
    03:00 +23°C° 0.1 mm 0 m/S 696 mmHg 80%
    04:00 +23°C° 0 mm 0 m/S 696 mmHg 80%
    05:00 +23°C° 0 mm 0 m/S 696 mmHg 80%
    06:00 +23°C° 0 mm 0 m/S 696 mmHg 81%
    07:00 +26°C° 0.4 mm 1 m/S 697 mmHg 77%
    08:00 +27°C° 0.4 mm 1 m/S 697 mmHg 73%
    09:00 +28°C° 0.4 mm 1 m/S 698 mmHg 70%
    10:00 +29°C° 0.7 mm 1 m/S 698 mmHg 63%
    11:00 +31°C° 0.7 mm 1 m/S 698 mmHg 57%
    12:00 +32°C° 0.7 mm 1 m/S 698 mmHg 51%
    13:00 +32°C° 1.4 mm 1 m/S 697 mmHg 53%
    14:00 +32°C° 1.4 mm 1 m/S 697 mmHg 54%
    15:00 +31°C° 1.4 mm 1 m/S 696 mmHg 56%
    16:00 +30°C° 1.7 mm 1 m/S 696 mmHg 63%
    17:00 +28°C° 1.7 mm 1 m/S 696 mmHg 70%
    18:00 +27°C° 1.7 mm 1 m/S 696 mmHg 77%
    19:00 +27°C° 0.4 mm 1 m/S 696 mmHg 79%
    20:00 +26°C° 0.4 mm 1 m/S 696 mmHg 80%
    21:00 +26°C° 0.4 mm 1 m/S 697 mmHg 82%
    22:00 +24°C° 0 mm 0 m/S 696 mmHg 82%
    23:00 +23°C° 0 mm 0 m/S 696 mmHg 83%

    Morgen, 16 Oktober, Dienstag

    Zeit Temperatur Niederschläge Wind Luftdruck Luftfeuchtigkeit
    00:00 +23°C° 0 mm 0 m/S 696 mmHg 83%
    01:00 +23°C° 0 mm 0 m/S 696 mmHg 84%
    02:00 +23°C° 0 mm 0 m/S 695 mmHg 84%
    03:00 +22°C° 0 mm 0 m/S 695 mmHg 85%
    04:00 +22°C° 0 mm 0 m/S 695 mmHg 85%
    05:00 +24°C° 0 mm 1 m/S 695 mmHg 86%
    06:00 +24°C° 0 mm 1 m/S 696 mmHg 86%
    07:00 +25°C° 0 mm 1 m/S 696 mmHg 79%
    08:00 +27°C° 0 mm 1 m/S 697 mmHg 73%
    09:00 +28°C° 0 mm 2 m/S 698 mmHg 66%
    10:00 +30°C° 0 mm 1 m/S 698 mmHg 60%
    11:00 +31°C° 0 mm 1 m/S 698 mmHg 54%
    12:00 +33°C° 0 mm 1 m/S 698 mmHg 48%
    13:00 +33°C° 0 mm 1 m/S 697 mmHg 47%
    14:00 +32°C° 0 mm 0 m/S 697 mmHg 46%
    15:00 +32°C° 0 mm 0 m/S 696 mmHg 45%
    16:00 +31°C° 0 mm 0 m/S 696 mmHg 48%
    17:00 +30°C° 0 mm 0 m/S 696 mmHg 52%
    18:00 +29°C° 0 mm 0 m/S 695 mmHg 55%
    19:00 +28°C° 0.1 mm 0 m/S 696 mmHg 57%
    20:00 +29°C° 0.1 mm 1 m/S 696 mmHg 59%
    21:00 +28°C° 0.1 mm 1 m/S 696 mmHg 61%
    22:00 +28°C° 0 mm 1 m/S 696 mmHg 63%
    23:00 +27°C° 0 mm 1 m/S 696 mmHg 65%

    übermorgen, 17 Oktober, Mittwoch

    Zeit Temperatur Niederschläge Wind Luftdruck Luftfeuchtigkeit
    00:00 +27°C° 0 mm 1 m/S 697 mmHg 67%
    01:00 +27°C° 0 mm 1 m/S 696 mmHg 69%
    02:00 +26°C° 0 mm 1 m/S 696 mmHg 70%
    03:00 +26°C° 0 mm 1 m/S 695 mmHg 72%
    04:00 +25°C° 0 mm 1 m/S 696 mmHg 74%
    05:00 +25°C° 0 mm 1 m/S 696 mmHg 76%
    06:00 +25°C° 0 mm 1 m/S 696 mmHg 77%
    07:00 +27°C° 0 mm 2 m/S 697 mmHg 71%
    08:00 +29°C° 0 mm 3 m/S 698 mmHg 64%
    09:00 +30°C° 0 mm 3 m/S 698 mmHg 58%
    10:00 +33°C° 0 mm 3 m/S 698 mmHg 53%
    11:00 +34°C° 0 mm 2 m/S 698 mmHg 48%
    12:00 +35°C° 0 mm 2 m/S 698 mmHg 44%
    13:00 +35°C° 0 mm 2 m/S 697 mmHg 44%
    14:00 +35°C° 0 mm 2 m/S 697 mmHg 45%
    15:00 +35°C° 0 mm 2 m/S 696 mmHg 45%
    16:00 +33°C° 0 mm 1 m/S 696 mmHg 48%
    17:00 +32°C° 0 mm 1 m/S 696 mmHg 51%
    18:00 +31°C° 0 mm 1 m/S 696 mmHg 54%
    19:00 +31°C° 0 mm 1 m/S 696 mmHg 55%
    20:00 +30°C° 0 mm 1 m/S 697 mmHg 56%
    21:00 +29°C° 0 mm 1 m/S 697 mmHg 58%
    22:00 +29°C° 0.2 mm 2 m/S 697 mmHg 61%
    23:00 +28°C° 0.2 mm 2 m/S 697 mmHg 65%

    18 Oktober, Donnerstag

    Zeit Temperatur Niederschläge Wind Luftdruck Luftfeuchtigkeit
    00:00 +27°C° 0.2 mm 2 m/S 697 mmHg 69%
    01:00 +27°C° 0 mm 2 m/S 696 mmHg 71%
    02:00 +26°C° 0 mm 2 m/S 696 mmHg 74%
    03:00 +26°C° 0 mm 2 m/S 695 mmHg 76%
    04:00 +26°C° 0 mm 2 m/S 696 mmHg 77%
    05:00 +25°C° 0 mm 2 m/S 696 mmHg 78%
    06:00 +25°C° 0 mm 2 m/S 697 mmHg 79%
    07:00 +27°C° 0 mm 3 m/S 697 mmHg 72%
    08:00 +29°C° 0 mm 4 m/S 698 mmHg 65%
    09:00 +30°C° 0 mm 4 m/S 699 mmHg 57%
    10:00 +33°C° 0 mm 4 m/S 698 mmHg 53%
    11:00 +34°C° 0 mm 4 m/S 698 mmHg 48%
    12:00 +35°C° 0 mm 4 m/S 698 mmHg 43%
    13:00 +35°C° 0 mm 3 m/S 697 mmHg 43%
    14:00 +35°C° 0 mm 3 m/S 696 mmHg 42%
    15:00 +35°C° 0 mm 2 m/S 695 mmHg 41%
    16:00 +35°C° 0 mm 2 m/S 696 mmHg 45%
    17:00 +33°C° 0 mm 1 m/S 696 mmHg 48%
    18:00 +32°C° 0 mm 1 m/S 696 mmHg 51%
    19:00 +31°C° 0 mm 1 m/S 696 mmHg 53%
    20:00 +30°C° 0 mm 1 m/S 696 mmHg 55%
    21:00 +29°C° 0 mm 1 m/S 697 mmHg 57%
    22:00 +28°C° 1 mm 2 m/S 696 mmHg 63%
    23:00 +27°C° 1 mm 2 m/S 696 mmHg 69%

    19 Oktober, Freitag

    Zeit Temperatur Niederschläge Wind Luftdruck Luftfeuchtigkeit
    00:00 +26°C° 1 mm 2 m/S 696 mmHg 75%
    01:00 +26°C° 0.2 mm 2 m/S 696 mmHg 77%
    02:00 +25°C° 0.2 mm 2 m/S 696 mmHg 78%
    03:00 +25°C° 0.2 mm 2 m/S 696 mmHg 80%
    04:00 +25°C° 0 mm 2 m/S 696 mmHg 81%
    05:00 +25°C° 0 mm 2 m/S 696 mmHg 82%
    06:00 +25°C° 0 mm 2 m/S 696 mmHg 82%
    07:00 +27°C° 0 mm 2 m/S 697 mmHg 73%
    08:00 +29°C° 0 mm 2 m/S 698 mmHg 64%
    09:00 +31°C° 0 mm 3 m/S 698 mmHg 55%
    10:00 +33°C° 0 mm 3 m/S 698 mmHg 50%
    11:00 +34°C° 0 mm 3 m/S 698 mmHg 45%
    12:00 +36°C° 0 mm 2 m/S 697 mmHg 40%
    13:00 +35°C° 0 mm 2 m/S 696 mmHg 41%
    14:00 +34°C° 0 mm 1 m/S 696 mmHg 41%
    15:00 +34°C° 0 mm 1 m/S 695 mmHg 42%
    16:00 +34°C° 0 mm 1 m/S 695 mmHg 45%
    17:00 +33°C° 0 mm 1 m/S 695 mmHg 47%
    18:00 +32°C° 0 mm 1 m/S 695 mmHg 50%
    19:00 +29°C° 0 mm 0 m/S 696 mmHg 52%
    20:00 +29°C° 0 mm 0 m/S 696 mmHg 53%
    21:00 +28°C° 0 mm 0 m/S 696 mmHg 54%
    22:00 +29°C° 0.1 mm 1 m/S 696 mmHg 57%
    23:00 +29°C° 0.1 mm 1 m/S 695 mmHg 59%

    20 Oktober, Samstag

    Zeit Temperatur Niederschläge Wind Luftdruck Luftfeuchtigkeit
    00:00 +28°C° 0.1 mm 1 m/S 695 mmHg 61%
    01:00 +27°C° 0.2 mm 1 m/S 695 mmHg 65%
    02:00 +27°C° 0.2 mm 2 m/S 694 mmHg 68%
    03:00 +26°C° 0.2 mm 2 m/S 694 mmHg 72%
    04:00 +25°C° 0.1 mm 2 m/S 694 mmHg 75%
    05:00 +25°C° 0.1 mm 1 m/S 695 mmHg 77%
    06:00 +25°C° 0.1 mm 1 m/S 695 mmHg 80%
    07:00 +27°C° 0 mm 1 m/S 695 mmHg 73%
    08:00 +28°C° 0 mm 1 m/S 696 mmHg 66%
    09:00 +30°C° 0 mm 1 m/S 697 mmHg 59%
    10:00 +32°C° 0 mm 1 m/S 696 mmHg 53%
    11:00 +34°C° 0 mm 1 m/S 696 mmHg 47%
    12:00 +35°C° 0 mm 1 m/S 696 mmHg 42%
    13:00 +35°C° 0 mm 1 m/S 695 mmHg 41%
    14:00 +33°C° 0 mm 0 m/S 695 mmHg 41%
    15:00 +32°C° 0 mm 0 m/S 694 mmHg 40%
    16:00 +32°C° 0 mm 0 m/S 694 mmHg 43%
    17:00 +33°C° 0 mm 1 m/S 694 mmHg 46%
    18:00 +32°C° 0 mm 1 m/S 694 mmHg 49%
    19:00 +31°C° 0 mm 1 m/S 694 mmHg 51%
    20:00 +30°C° 0 mm 1 m/S 695 mmHg 53%
    21:00 +30°C° 0 mm 1 m/S 695 mmHg 54%
    22:00 +29°C° 0.1 mm 1 m/S 695 mmHg 57%
    23:00 +28°C° 0.1 mm 1 m/S 694 mmHg 61%
    Mehr zeigen